Hartford, CT

3:44 AM EDT on September 26, 2016 (GMT -0400)
Bradley International

Weather History for KBDL - February, 2013

Change the Weather History Date:

Monday, February 4, 2013

  Actual Average Record
Temperature  
Mean Temperature 26 °F 28 °F  
Max Temperature 31 °F 36 °F 64 °F (1991)
Min Temperature 20 °F 19 °F -8 °F (1965)
Degree Days  
Heating Degree Days 39 37  
Month to date heating degree days 161 151  
Since 1 July heating degree days 3319 3601  
Cooling Degree Days 0 0  
Month to date cooling degree days 0 0  
Year to date cooling degree days 0 0  
Moisture  
Dew Point 7 °F    
Average Humidity 52    
Maximum Humidity 71    
Minimum Humidity 33    
Precipitation  
Precipitation 0.00 in 0.10 in 1.73 in (1995)
Month to date precipitation T 0.41  
Year to date precipitation 1.75 3.64  
Snow  
Snow 0.00 in 0.40 in 16.20 in (1926)
Month to date snowfall 0.1 1.8  
Since 1 July snowfall 21.8 23.5  
Snow Depth 0.00 in    
Sea Level Pressure  
Sea Level Pressure 29.86 in    
Wind  
Wind Speed 8 mph (WNW)    
Max Wind Speed 25 mph    
Max Gust Speed 32 mph    
Visibility 10 miles    
Events      
T = Trace of Precipitation, MM = Missing Value Source: NWS Daily Summary

Daily Weather History Graph

Daily Weather History Graph

Search for Another Location

Airport or City:

Trip Planner

Search our weather history database for the weather conditions in past years. The results will help you decide how hot, cold, wet, or windy it might be!

Date:

Astronomy

Feb. 04, 2013 Rise Set
Actual Time 6:59 AM EST 5:09 PM EST
Civil Twilight 6:30 AM EST 5:39 PM EST
Nautical Twilight 5:57 AM EST 6:12 PM EST
Astronomical Twilight 5:24 AM EST 6:45 PM EST
Moon 1:33 AM EST (2/4) 11:29 AM EST (2/4)
Length of Visible Light 11h 08m
Length of Day
10h 10m
Last Quarter, 37% of the Moon is Illuminated
Feb 4
Last Quarter
Feb 10
New
Feb 17
First Quarter
Feb 25
Full
Mar 4
Last Quarter

Hourly Weather History & Observations

Time (EST) Temp. Windchill Dew Point Humidity Pressure Visibility Wind Dir Wind Speed Gust Speed Precip Events Conditions
12:51 AM 21.0 °F - 10.9 °F 65% 29.76 in 10.0 mi Calm Calm - N/A   Mostly Cloudy
1:51 AM 21.0 °F - 12.0 °F 68% 29.76 in 10.0 mi Calm Calm - N/A   Mostly Cloudy
2:51 AM 21.9 °F 17.2 °F 12.0 °F 66% 29.76 in 10.0 mi WNW 3.5 mph - N/A   Overcast
3:51 AM 23.0 °F 17.0 °F 14.0 °F 68% 29.77 in 10.0 mi WNW 4.6 mph - N/A   Mostly Cloudy
5:51 AM 21.2 °F 12.6 °F 12.2 °F 68% 29.80 in 10.0 mi West 6.9 mph - N/A   Partly Cloudy
6:51 AM 21.0 °F 11.4 °F 10.0 °F 63% 29.84 in 10.0 mi WNW 8.1 mph - N/A   Scattered Clouds
7:51 AM 23.0 °F 11.7 °F 10.0 °F 58% 29.86 in 10.0 mi WNW 11.5 mph - N/A   Partly Cloudy
8:51 AM 25.0 °F 14.2 °F 10.0 °F 53% 29.86 in 10.0 mi WNW 11.5 mph - N/A   Scattered Clouds
9:51 AM 25.0 °F 12.2 °F 9.0 °F 51% 29.87 in 10.0 mi WNW 16.1 mph 23.0 mph N/A   Mostly Cloudy
10:51 AM 27.0 °F 14.3 °F 7.0 °F 43% 29.87 in 10.0 mi WNW 17.3 mph 24.2 mph N/A   Mostly Cloudy
11:51 AM 28.9 °F 17.3 °F 5.0 °F 36% 29.86 in 10.0 mi West 16.1 mph 23.0 mph N/A   Mostly Cloudy
12:51 PM 28.9 °F 17.7 °F 6.1 °F 38% 29.84 in 10.0 mi WNW 15.0 mph 23.0 mph N/A   Mostly Cloudy
1:51 PM 28.9 °F 16.5 °F 3.9 °F 35% 29.84 in 10.0 mi West 18.4 mph 25.3 mph N/A   Mostly Cloudy
2:51 PM 28.0 °F 18.1 °F 6.1 °F 39% 29.86 in 10.0 mi West 11.5 mph - N/A   Mostly Cloudy
3:51 PM 28.0 °F 17.0 °F 3.9 °F 36% 29.85 in 10.0 mi West 13.8 mph 19.6 mph N/A   Scattered Clouds
4:51 PM 27.0 °F 18.7 °F 3.9 °F 37% 29.85 in 10.0 mi WNW 8.1 mph - N/A   Scattered Clouds
5:51 PM 26.1 °F 16.8 °F 1.9 °F 35% 29.88 in 10.0 mi WNW 9.2 mph - N/A   Scattered Clouds
6:51 PM 24.1 °F 18.2 °F 3.0 °F 40% 29.91 in 10.0 mi West 4.6 mph - N/A   Partly Cloudy
7:51 PM 24.1 °F 16.0 °F 1.9 °F 38% 29.92 in 10.0 mi West 6.9 mph - N/A   Mostly Cloudy
8:51 PM 21.9 °F 13.4 °F 3.9 °F 46% 29.94 in 10.0 mi West 6.9 mph - N/A   Scattered Clouds
9:51 PM 21.9 °F - 5.0 °F 48% 29.94 in 10.0 mi Calm Calm - N/A   Mostly Cloudy
10:51 PM 21.9 °F 17.2 °F 9.0 °F 58% 29.95 in 10.0 mi NE 3.5 mph - N/A   Overcast
11:51 PM 21.2 °F - 8.6 °F 58% 29.95 in 10.0 mi Calm Calm - N/A   Overcast